{"data":{"norad_id":64319,"intl_designator":"2025-124C","name":"STARLINK-11671 [DTC]","alt_names":[],"object_type":"PAYLOAD","status":"ACTIVE","operator":null,"country":"US","launch_date":"2025-06-10","launch_site_code":"AFETR","launch_vehicle":null,"mission":null,"orbit_class":"UNKNOWN","rcs_meters":null,"size_class":null,"mass_kg":null,"dimensions":null,"purposes":["comms"],"wikipedia_slug":null,"has_3d_model":false,"image_url":null,"decayed_at":null,"tle_current":{"epoch":"2026-05-24T18:47:37.485600Z","epoch_age_seconds":89916,"freshness":"FRESH","line1":"1 64319U 25124C   26144.78307275  .00185741  00000+0  14174-2 0  9997","line2":"2 64319  43.0003 290.3931 0001539 257.5117 102.5579 15.70864563 54809","mean_motion":15.70864563,"eccentricity":0.0001539,"inclination_deg":43.0003,"raan_deg":290.3931,"arg_perigee_deg":257.5117,"mean_anomaly_deg":102.5579,"bstar":0.0014174,"rev_number":5480,"period_min":91.669265060631,"perigee_km":355.38840776257,"apogee_km":357.4613059021,"semimajor_km":6734.5618568323,"source":"CELESTRAK","updated_at":"2026-05-25T13:38:20.393453Z"}}}